�������l�o���
Date,Time,MP-1(��Sv/h),MP-2(��Sv/h),MP-3(��Sv/h),MP-4(��Sv/h),MP-5(��Sv/h),MP-6(��Sv/h),MP-7(��Sv/h),MP-8(��Sv/h),����,����(m/s),���J
2024/04/23,00:00,0.509,0.776,0.484,0.962,0.689,0.315,0.547,0.517,�k,2.6,�L
2024/04/23,00:10,0.509,0.775,0.484,0.959,0.689,0.315,0.547,0.517,�k,2.3,�L
2024/04/23,00:20,0.507,0.776,0.483,0.959,0.688,0.315,0.549,0.514,�k�k��,2.3,�L
2024/04/23,00:30,0.507,0.776,0.484,0.959,0.689,0.315,0.550,0.516,�k�k��,2.3,�L
2024/04/23,00:40,0.509,0.772,0.483,0.961,0.689,0.316,0.548,0.517,�k�k��,3.9,�L
2024/04/23,00:50,0.505,0.775,0.482,0.960,0.688,0.315,0.550,0.517,�k�k��,3.5,�L
2024/04/23,01:00,0.506,0.772,0.483,0.959,0.687,0.315,0.547,0.517,�k�k��,3.4,��
2024/04/23,01:10,0.506,0.773,0.482,0.962,0.690,0.314,0.549,0.517,�k�k��,3.7,��
2024/04/23,01:20,0.507,0.774,0.481,0.958,0.690,0.313,0.548,0.517,�k�k��,3.5,��
2024/04/23,01:30,0.505,0.772,0.480,0.960,0.690,0.314,0.549,0.518,�k�k��,4.2,�L
2024/04/23,01:40,0.504,0.772,0.483,0.960,0.690,0.314,0.551,0.517,�k�k��,3.9,�L
2024/04/23,01:50,0.506,0.772,0.480,0.960,0.688,0.315,0.550,0.516,�k��,5.5,�L
2024/04/23,02:00,0.506,0.771,0.481,0.959,0.688,0.315,0.548,0.517,�k��,4.5,�L
2024/04/23,02:10,0.505,0.772,0.481,0.958,0.689,0.312,0.550,0.516,�k��,5.7,�L
2024/04/23,02:20,0.505,0.772,0.481,0.959,0.690,0.314,0.549,0.517,�k�k��,5.5,�L
2024/04/23,02:30,0.507,0.769,0.481,0.958,0.689,0.314,0.548,0.517,�k�k��,5.0,�L
2024/04/23,02:40,0.506,0.771,0.481,0.959,0.689,0.314,0.549,0.517,�k�k��,4.5,�L
2024/04/23,02:50,0.505,0.769,0.482,0.958,0.688,0.313,0.548,0.518,�k�k��,5.1,�L
2024/04/23,03:00,0.505,0.771,0.480,0.960,0.688,0.314,0.549,0.517,�k�k��,3.7,��
2024/04/23,03:10,0.506,0.771,0.480,0.959,0.688,0.315,0.551,0.517,�k��,4.7,��
2024/04/23,03:20,0.505,0.770,0.482,0.958,0.688,0.314,0.549,0.516,�k��,4.9,��
2024/04/23,03:30,0.503,0.772,0.479,0.960,0.688,0.314,0.550,0.518,�k��,4.8,��
2024/04/23,03:40,0.504,0.771,0.483,0.960,0.688,0.314,0.552,0.518,�k��,4.6,��
2024/04/23,03:50,0.504,0.772,0.479,0.957,0.687,0.314,0.553,0.518,�k�k��,4.7,��
2024/04/23,04:00,0.505,0.769,0.481,0.958,0.689,0.314,0.551,0.517,�k�k��,5.0,��
2024/04/23,04:10,0.504,0.770,0.481,0.957,0.689,0.313,0.552,0.519,�k�k��,5.1,��
2024/04/23,04:20,0.506,0.771,0.481,0.959,0.689,0.314,0.551,0.518,�k�k��,5.2,��
2024/04/23,04:30,0.505,0.771,0.481,0.960,0.688,0.313,0.550,0.519,�k�k��,5.3,��
2024/04/23,04:40,0.505,0.771,0.481,0.958,0.688,0.314,0.550,0.519,�k�k��,4.6,��
2024/04/23,04:50,0.506,0.772,0.480,0.959,0.687,0.313,0.551,0.519,�k�k��,4.2,��
2024/04/23,05:00,0.506,0.770,0.481,0.958,0.688,0.313,0.552,0.518,�k�k��,4.2,��
2024/04/23,05:10,0.504,0.773,0.480,0.958,0.687,0.314,0.551,0.519,�k�k��,4.1,��
2024/04/23,05:20,0.506,0.773,0.482,0.959,0.689,0.313,0.551,0.518,�k�k��,4.2,��
2024/04/23,05:30,0.506,0.771,0.482,0.957,0.688,0.314,0.552,0.517,�k�k��,4.8,��
2024/04/23,05:40,0.506,0.770,0.480,0.958,0.689,0.314,0.552,0.519,�k�k��,4.3,��
2024/04/23,05:50,0.506,0.770,0.482,0.958,0.689,0.313,0.551,0.518,�k�k��,4.5,��
2024/04/23,06:00,0.506,0.772,0.481,0.959,0.690,0.313,0.551,0.518,�k�k��,4.2,��
2024/04/23,06:10,0.507,0.773,0.481,0.959,0.689,0.313,0.550,0.519,�k�k��,4.3,��
2024/04/23,06:20,0.505,0.771,0.481,0.958,0.689,0.314,0.552,0.518,�k�k��,4.0,��
2024/04/23,06:30,0.505,0.772,0.480,0.960,0.688,0.313,0.550,0.518,�k�k��,3.9,��
2024/04/23,06:40,0.505,0.773,0.481,0.959,0.687,0.313,0.552,0.520,�k�k��,4.3,��
2024/04/23,06:50,0.506,0.772,0.481,0.959,0.690,0.314,0.552,0.518,�k�k��,4.3,��
2024/04/23,07:00,0.506,0.772,0.483,0.957,0.689,0.313,0.551,0.519,�k,4.1,��
2024/04/23,07:10,0.506,0.770,0.482,0.958,0.688,0.313,0.550,0.519,�k�k��,4.0,��
2024/04/23,07:20,0.507,0.770,0.481,0.961,0.689,0.313,0.551,0.519,�k�k��,3.7,�L
2024/04/23,07:30,0.505,0.772,0.482,0.960,0.688,0.315,0.551,0.518,�k,2.9,�L
2024/04/23,07:40,0.505,0.769,0.481,0.959,0.687,0.312,0.551,0.518,�k��,1.1,�L
2024/04/23,07:50,0.505,0.771,0.481,0.959,0.687,0.313,0.551,0.519,�k�k��,1.2,�L
2024/04/23,08:00,0.505,0.770,0.479,0.958,0.687,0.314,0.552,0.518,�k�k��,3.2,�L
2024/04/23,08:10,0.506,0.771,0.481,0.958,0.685,0.314,0.551,0.518,�k�k��,3.4,�L
2024/04/23,08:20,0.505,0.771,0.481,0.959,0.686,0.313,0.552,0.517,�k�k��,2.6,��
2024/04/23,08:30,0.507,0.770,0.482,0.960,0.687,0.313,0.552,0.518,�k�k��,2.6,��
2024/04/23,08:40,0.505,0.771,0.482,0.959,0.687,0.313,0.552,0.518,�k�k��,3.4,��
2024/04/23,08:50,0.506,0.771,0.481,0.959,0.687,0.313,0.552,0.518,�k�k��,3.3,��
2024/04/23,09:00,0.505,0.771,0.482,0.961,0.687,0.312,0.552,0.518,�k�k��,3.7,��
2024/04/23,09:10,0.506,0.769,0.482,0.958,0.687,0.312,0.552,0.518,�k�k��,3.3,��
2024/04/23,09:20,0.506,0.770,0.483,0.959,0.687,0.311,0.551,0.517,�k�k��,3.4,��
2024/04/23,09:30,0.506,0.770,0.483,0.961,0.687,0.313,0.552,0.518,�k�k��,3.3,��
2024/04/23,09:40,0.505,0.771,0.482,0.960,0.688,0.312,0.553,0.516,�k�k��,3.0,��
2024/04/23,09:50,0.505,0.772,0.482,0.959,0.687,0.312,0.552,0.518,�k�k��,2.6,��
2024/04/23,10:00,0.507,0.770,0.482,0.959,0.686,0.312,0.552,0.517,�k,2.8,��
2024/04/23,10:10,0.504,0.770,0.482,0.962,0.688,0.313,0.552,0.516,�k,2.2,��
2024/04/23,10:20,0.505,0.770,0.482,0.960,0.687,0.312,0.552,0.517,�k�k��,5.4,��
2024/04/23,10:30,0.506,0.769,0.481,0.962,0.689,0.314,0.551,0.515,�k�k��,6.2,��
2024/04/23,10:40,0.505,0.769,0.481,0.959,0.687,0.311,0.553,0.517,�k�k��,6.7,��
2024/04/23,10:50,0.505,0.770,0.480,0.958,0.687,0.311,0.552,0.516,�k�k��,6.3,��
2024/04/23,11:00,0.505,0.770,0.481,0.960,0.688,0.310,0.553,0.516,�k,5.8,��
2024/04/23,11:10,0.505,0.772,0.481,0.962,0.687,0.311,0.551,0.516,�k,5.4,��
2024/04/23,11:20,0.504,0.770,0.480,0.960,0.687,0.311,0.551,0.518,�k,5.8,��
2024/04/23,11:30,0.506,0.770,0.481,0.961,0.687,0.311,0.552,0.517,�k,5.0,��
2024/04/23,11:40,0.505,0.771,0.480,0.961,0.686,0.313,0.552,0.516,�k,4.5,��
2024/04/23,11:50,0.505,0.772,0.482,0.960,0.686,0.311,0.552,0.515,�k,4.4,��
2024/04/23,12:00,0.507,0.772,0.482,0.961,0.688,0.310,0.552,0.518,�k�k��,3.7,��
2024/04/23,12:10,0.507,0.771,0.481,0.960,0.688,0.313,0.552,0.516,�k�k��,3.0,��
2024/04/23,12:20,0.506,0.772,0.482,0.961,0.688,0.312,0.551,0.517,�k�k��,2.5,��
2024/04/23,12:30,0.504,0.775,0.481,0.963,0.689,0.311,0.551,0.518,�k�k��,2.3,��
2024/04/23,12:40,0.506,0.774,0.482,0.961,0.689,0.312,0.552,0.515,�k�k��,2.3,��
2024/04/23,12:50,0.506,0.773,0.482,0.963,0.690,0.311,0.552,0.517,�k�k��,2.3,��
2024/04/23,13:00,0.507,0.773,0.483,0.963,0.689,0.313,0.552,0.515,�k,2.5,��
2024/04/23,13:10,0.507,0.774,0.485,0.961,0.690,0.313,0.551,0.516,�k�k��,2.6,��
2024/04/23,13:20,0.507,0.774,0.484,0.961,0.691,0.313,0.551,0.519,�k�k��,3.7,��
2024/04/23,13:30,0.509,0.774,0.484,0.961,0.690,0.313,0.550,0.517,�k,3.8,��
2024/04/23,13:40,0.505,0.774,0.483,0.963,0.690,0.312,0.551,0.516,�k�k��,3.5,��
2024/04/23,13:50,0.508,0.777,0.485,0.961,0.690,0.312,0.549,0.517,�k�k��,3.8,��
2024/04/23,14:00,0.505,0.776,0.483,0.963,0.689,0.311,0.550,0.516,�k,4.0,�L
2024/04/23,14:10,0.508,0.773,0.486,0.959,0.689,0.313,0.551,0.516,�k�k��,3.0,�L
2024/04/23,14:20,0.506,0.775,0.484,0.964,0.690,0.314,0.550,0.517,�k,2.5,�L
2024/04/23,14:30,0.508,0.776,0.484,0.962,0.690,0.313,0.550,0.519,�k,2.3,�L
2024/04/23,14:40,0.508,0.774,0.484,0.961,0.690,0.315,0.550,0.518,�k�k��,2.3,�L
2024/04/23,14:50,0.507,0.775,0.482,0.962,0.690,0.315,0.552,0.517,�k�k��,2.3,�L
2024/04/23,15:00,0.510,0.775,0.484,0.963,0.690,0.315,0.550,0.519,�k�k��,2.0,�L
2024/04/23,15:10,0.507,0.774,0.484,0.961,0.691,0.314,0.551,0.519,�k�k��,2.0,�L
2024/04/23,15:20,0.504,0.776,0.483,0.962,0.689,0.314,0.552,0.518,�k��,2.0,�L
2024/04/23,15:30,0.508,0.772,0.482,0.959,0.690,0.314,0.550,0.518,�k��,1.5,�L
2024/04/23,15:40,0.507,0.774,0.482,0.962,0.689,0.315,0.550,0.518,�k��,1.7,�L
2024/04/23,15:50,0.507,0.774,0.485,0.961,0.690,0.314,0.550,0.519,���k��,1.7,�L
2024/04/23,16:00,0.506,0.774,0.482,0.959,0.690,0.314,0.550,0.518,�k��,1.2,�L
2024/04/23,16:10,0.510,0.774,0.483,0.959,0.691,0.314,0.551,0.520,��,3.0,�L
2024/04/23,16:20,0.508,0.773,0.484,0.961,0.690,0.315,0.553,0.519,��,2.8,�L
2024/04/23,16:30,0.507,0.773,0.483,0.960,0.690,0.313,0.552,0.518,��,2.5,�L
2024/04/23,16:40,0.507,0.774,0.482,0.959,0.690,0.314,0.553,0.517,��,2.3,�L
2024/04/23,16:50,0.508,0.774,0.482,0.958,0.689,0.315,0.552,0.518,��,2.2,�L
2024/04/23,17:00,0.509,0.773,0.483,0.960,0.690,0.314,0.553,0.518,���쓌,1.5,�L
2024/04/23,17:10,0.507,0.773,0.481,0.961,0.693,0.314,0.552,0.518,���쓌,2.2,�L
2024/04/23,17:20,0.508,0.772,0.482,0.961,0.691,0.315,0.550,0.519,��,2.2,�L
2024/04/23,17:30,0.507,0.775,0.483,0.961,0.690,0.314,0.552,0.519,���k��,1.5,�L
2024/04/23,17:40,0.508,0.775,0.483,0.960,0.689,0.314,0.552,0.518,���k��,2.3,�L
2024/04/23,17:50,0.508,0.773,0.482,0.958,0.689,0.314,0.551,0.519,���k��,2.3,�L
2024/04/23,18:00,0.509,0.769,0.480,0.960,0.689,0.314,0.551,0.519,�k��,3.1,�L
2024/04/23,18:10,0.507,0.769,0.480,0.961,0.688,0.315,0.551,0.518,�k�k��,2.2,�L
2024/04/23,18:20,0.505,0.769,0.481,0.959,0.686,0.314,0.551,0.518,�k,2.3,�L
2024/04/23,18:30,0.506,0.766,0.480,0.959,0.685,0.315,0.550,0.518,�k�k��,2.2,�L
2024/04/23,18:40,0.504,0.766,0.480,0.957,0.685,0.314,0.548,0.518,�k�k��,1.7,�L
2024/04/23,18:50,0.505,0.763,0.477,0.955,0.683,0.313,0.549,0.517,�k,2.3,�L
2024/04/23,19:00,0.505,0.760,0.477,0.952,0.680,0.313,0.546,0.517,�k�k��,2.2,�L
2024/04/23,19:10,0.504,0.757,0.477,0.951,0.680,0.313,0.546,0.515,�k,2.0,�L
2024/04/23,19:20,0.503,0.759,0.478,0.951,0.678,0.313,0.548,0.516,�k��,2.9,�L
2024/04/23,19:30,0.502,0.757,0.478,0.949,0.678,0.314,0.548,0.515,���k��,3.8,�L
2024/04/23,19:40,0.503,0.758,0.477,0.951,0.678,0.312,0.547,0.515,���k��,4.2,�L
2024/04/23,19:50,0.502,0.756,0.476,0.949,0.680,0.313,0.548,0.514,���k��,3.7,��
2024/04/23,20:00,0.504,0.756,0.476,0.951,0.676,0.313,0.548,0.516,���k��,4.3,��
2024/04/23,20:10,0.503,0.757,0.476,0.949,0.678,0.313,0.546,0.516,���k��,3.4,��
2024/04/23,20:20,0.503,0.756,0.476,0.949,0.678,0.312,0.546,0.516,���k��,3.0,��
2024/04/23,20:30,0.504,0.760,0.477,0.949,0.677,0.311,0.546,0.515,��,5.0,��
2024/04/23,20:40,0.503,0.757,0.476,0.948,0.678,0.312,0.546,0.517,���k��,2.9,��
2024/04/23,20:50,0.504,0.758,0.476,0.947,0.677,0.311,0.546,0.517,��,3.6,��
2024/04/23,21:00,0.503,0.757,0.474,0.948,0.679,0.310,0.549,0.516,��,3.6,��
2024/04/23,21:10,0.504,0.758,0.475,0.949,0.678,0.311,0.549,0.515,��,3.1,��
2024/04/23,21:20,0.504,0.756,0.476,0.950,0.679,0.311,0.546,0.516,��,2.6,��
2024/04/23,21:30,0.502,0.759,0.474,0.947,0.677,0.311,0.549,0.515,���k��,3.2,��
2024/04/23,21:40,0.503,0.758,0.473,0.947,0.678,0.311,0.549,0.517,��,2.5,��
2024/04/23,21:50,0.503,0.758,0.475,0.949,0.678,0.312,0.548,0.516,�k�k��,0.6,�L
2024/04/23,22:00,0.502,0.758,0.475,0.950,0.677,0.311,0.550,0.516,��,2.0,�L
2024/04/23,22:10,0.504,0.758,0.475,0.949,0.677,0.311,0.548,0.516,��,1.4,�L
2024/04/23,22:20,0.503,0.756,0.475,0.947,0.677,0.310,0.549,0.516,�쐼,0.6,�L
2024/04/23,22:30,0.503,0.759,0.474,0.948,0.676,0.310,0.550,0.515,�k,0.9,�L
2024/04/23,22:40,0.502,0.758,0.475,0.947,0.676,0.309,0.547,0.517,�쐼,0.9,�L
2024/04/23,22:50,0.503,0.758,0.474,0.949,0.678,0.312,0.548,0.517,��,1.4,�L
2024/04/23,23:00,0.502,0.755,0.475,0.948,0.677,0.313,0.548,0.514,�k��,2.3,��
2024/04/23,23:10,0.504,0.758,0.473,0.949,0.677,0.310,0.549,0.515,��,1.7,�L
2024/04/23,23:20,0.503,0.758,0.473,0.949,0.676,0.311,0.546,0.517,�k��,1.4,�L
2024/04/23,23:30,0.504,0.758,0.475,0.947,0.677,0.311,0.549,0.516,���k��,1.5,�L
2024/04/23,23:40,0.503,0.755,0.474,0.950,0.677,0.312,0.549,0.517,�k��,1.4,�L
2024/04/23,23:50,0.502,0.756,0.474,0.946,0.678,0.312,0.548,0.517,���k��,1.2,�L
